ONEWEB-0266, 48984

Orbit data source: Space-Track

ONEWEB-0266, 48984 is a payload satellite owned by One Web (NAA) (UK) in LEO that was launched on Thu, 01 Jul 2021 UTC via a SOYUZ-2-1B launch vehicle from the Vostochny Cosmodrome (VOSTO). Payload-class satellites include a variety of spacecraft equipped with specific instruments for various scientific and technological missions. These include communications satellites like Starlink; space stations such as the ISS; scientific satellites like the Hubble; Earth observation satellites from companies like Planet Labs, Umbra, and HawkEye 360; GPS; miniature CubeSats for education and research; and military/defense satellites.

Loading next visibility...
Identifier
48984, 2021-060T
Orbit
LEO
Country
Flag of UKUK
Related business
Manufacturer
One Web
Mission
Operational Commercial Communications
Bus & Motor
ARROW, Unknown motor
Mass
148 kg wet, ~140 kg dry
Launch date (UTC)
2021-07-01 (4 years ago)
Launch vehicle
SOYUZ-2-1B
Launch site
Vostochny Cosmodrome (VOSTO)
Object type
Payload
Rocket body
Debris
Shape & HBR
Trap Box + 2 Pan, 6.7 m
Radar Cross Section
3.464 m², Large (>1 m²)

Expand to show TLE details & history
Last TLE update: 9 hours ago

TLE from 9 hours ago
0 ONEWEB-0266
1 48984U 21060T   25349.82500865 -.00000053  00000-0 -17101-3 0  9992
2 48984  87.9048 265.2840 0001533  71.2400 288.8897 13.16595770215455
Epoch: 2025-12-15T19:48Z
TLE epoch observation values (Epoch: 2025-12-15T19:48:00.747Z)
Latitude
-0.00003°
Longitude
-116.43713°
Altitude
1,200.272 km
Speed
7.254 km/s
True Right ascension
17h 41m 08s
True Declination
0° 00' 00"
Sunlit
Object was in daylight at epoch
Visualization orbit readout
Latitude
Unknown
Longitude
Unknown
Altitude
Unknown
Speed
Unknown
Apparent Right ascension
Unknown
Apparent Declination
Unknown
Sunlit
N/A
Visualization observer readout
Local Sidereal Time
03:06:49
Azimuth
Unknown
Elevation
Unknown
Doppler factor
Unknown
Orbital elements
Apogee altitude
1,196.022 km
Perigee altitude
1,193.7 km
Semi-major axis
7,572.998 km
Eccentricity
0.00015
Inclination
87.9048°
RAAN
265.284°
Arg. of periapsis
71.24°
True anomaly
288.87308°
Mean anomaly
288.8897°
Eccentric anomaly
288.88139°
Mean motion
3.29338 °/min
Orbital period
109.31 mins
BSTAR
-0.00017101
Loading maneuver chart data...
Computing Atmospheric mass density...
Loading historical data...
Loading historical data...
Loading historical data...
Loading historical data...
Loading historical data...
Loading historical data...
Loading historical data...

Documentation

Showing up to 5 results
|